{"data":{"norad_id":33433,"epoch":"2026-09-19T21:13:33.860352Z","epoch_age_seconds":71314,"freshness":"FRESH","line1":"1 33433U 08056A   26262.88441968  .00000066  00000+0  41782-4 0  9998","line2":"2 33433  98.6029 288.4846 0012991 211.6520 148.3883 14.30827238932345","mean_motion":14.30827238,"eccentricity":0.0012991,"inclination_deg":98.6029,"raan_deg":288.4846,"arg_perigee_deg":211.652,"mean_anomaly_deg":148.3883,"bstar":4.1782e-5,"rev_number":93234,"period_min":100.64108103036,"perigee_km":779.65625132684,"apogee_km":798.27782103364,"semimajor_km":7167.1040361802,"source":"CELESTRAK","updated_at":"2026-09-20T09:00:13.700222Z"}}